Location: Wanzleben
(52.0609°N, 11.4408°E)
Time: 03:51:33
(UTC+00:00)

Cosmos 2278 Rocket - Pass Details

Date: 18 September 2020
Orbit: 841 x 845 km, 71.0° (Epoch: 22 October)

Event Time Altitude Azimuth Distance (km) Brightness Sun altitude
Exits shadow 21:22:32 32° 34° (NNE) 1,410 3.5 -32.1°
Drops below altitude 10° 21:25:29 10° 32° (NNE) 2,472 4.9 -32.3°
Sets 21:27:56 0° 32° (NNE) 3,411 5.7 -32.5°
